Location: ??????????
(44.2167°N, 135.5333°E)
Time: 14:05:34
(UTC+00:00)

In-Cosmos 22 Rocket - Pass Details

Date: 15 June 2025
Orbit: 789 x 886 km, 81.2° (Epoch: 15 July)

Event Time Altitude Azimuth Distance (km) Brightness Sun altitude
Exits shadow 16:00:10 39° 169° (SSE) 1,260 4.6 -21.0°
Maximum altitude 16:02:18 70° 97° (E) 912 4.3 -20.9°
Drops below altitude 10° 16:08:01 10° 15° (NNE) 2,533 7.9 -20.6°
Sets 16:10:30 0° 13° (NNE) 3,484 9.0 -20.5°
